This is the latest recevied weather packets stored in our database for station/object N0EDB-13. If no packets are shown the sender has not sent any weather packets the latest 10 day(s).
| Time | Temp. | Humidity | Pressure | Rain* | Wind** | Luminosity | Snow |
|---|---|---|---|---|---|---|---|
| 1777580536 | 11.11° C | 50% | 1507.1 hPa | 0 mm | - | 375 W/m² | - |
| 1777580235 | 11.11° C | 51% | 1507.1 hPa | 0 mm | - | 337 W/m² | - |
| 1777579935 | 11.11° C | 51% | 1507.1 hPa | 0 mm | - | 325 W/m² | - |
| 1777579634 | 10.56° C | 51% | 1507.5 hPa | 0 mm | - | 338 W/m² | - |
| 1777579334 | 10.56° C | 51% | 1508 hPa | 0 mm | - | 348 W/m² | - |
| 1777579033 | 10.56° C | 51% | 1508.2 hPa | 0 mm | - | 342 W/m² | - |
| 1777578732 | 10.56° C | 51% | 1508.3 hPa | 0 mm | - | 291 W/m² | - |
| 1777578431 | 10.56° C | 51% | 1508.3 hPa | 0 mm | - | 262 W/m² | - |
| 1777578130 | 10.56° C | 51% | 1508.3 hPa | 0 mm | - | 275 W/m² | - |
| 1777577830 | 10° C | 51% | 1508.6 hPa | 0 mm | - | 318 W/m² | - |
| 1777577529 | 10° C | 50% | 1509.3 hPa | 0 mm | - | 337 W/m² | - |
| 1777577229 | 10° C | 51% | 1509.9 hPa | 0 mm | - | 345 W/m² | - |
| 1777576928 | 9.44° C | 51% | 1510.3 hPa | 0 mm | - | 339 W/m² | - |
| 1777576628 | 9.44° C | 51% | 1510.4 hPa | 0 mm | - | 328 W/m² | - |
| 1777576327 | 10° C | 51% | 1510.1 hPa | 0 mm | - | 309 W/m² | - |
| 1777576026 | 10° C | 50% | 1510 hPa | 0 mm | - | 304 W/m² | - |
| 1777575726 | 9.44° C | 53% | 1510.8 hPa | 0 mm | - | 287 W/m² | - |
| 1777575425 | 9.44° C | 51% | 1510.9 hPa | 0 mm | - | 277 W/m² | - |
| 1777575124 | 9.44° C | 51% | 1511.1 hPa | 0 mm | - | 374 W/m² | - |
| 1777574823 | 9.44° C | 51% | 1510.9 hPa | 0 mm | - | 312 W/m² | - |
| 1777574522 | 9.44° C | 50% | 1511.1 hPa | 0 mm | - | 210 W/m² | - |
| 1777574222 | 9.44° C | 50% | 1511.2 hPa | 0 mm | - | 202 W/m² | - |
| 1777573921 | 9.44° C | 50% | 1511.4 hPa | 0 mm | - | 193 W/m² | - |
| 1777573620 | 9.44° C | 50% | 1511.5 hPa | 0 mm | - | 167 W/m² | - |
| 1777573319 | 9.44° C | 50% | 1511.7 hPa | 0 mm | - | 153 W/m² | - |
* Rain latest hour (hover to see other rain measurements)
** Current wind speed in m/s (hover to see current wind gust speed)